Ontario, CA

6:19 AM PDT on August 22, 2017 (GMT -0700)
Ontario International

Weather History for KONT - November, 2013

Change the Weather History Date:

Sunday, November 3, 2013

  Actual Average Record
Temperature  
Mean Temperature 62 °F 64 °F  
Max Temperature 71 °F 77 °F 98 °F (2010)
Min Temperature 52 °F 50 °F 45 °F (2002)
Degree Days  
Heating Degree Days 3 3  
Month to date heating degree days 3 9  
Since 1 July heating degree days 46 54  
Cooling Degree Days 0 2  
Month to date cooling degree days 5 6  
Year to date cooling degree days 1977 1689  
Growing Degree Days 11 (Base 50)    
Moisture  
Dew Point 49 °F    
Average Humidity 67    
Maximum Humidity 93    
Minimum Humidity 40    
Precipitation  
Precipitation 0.00 in 0.05 in 0.04 in (2015)
Month to date precipitation 0.00 0.15  
Year to date precipitation 3.03 11.66  
Since 1 July precipitation 0.24  
Snow  
Snow 0.00 in - - ()
Month to date snowfall 0.0  
Year to date snowfall 0.0  
Snow Depth 0.00 in    
Sea Level Pressure  
Sea Level Pressure 29.87 in    
Wind  
Wind Speed 1 mph (West)    
Max Wind Speed 10 mph    
Max Gust Speed 14 mph    
Visibility 7 miles    
Events      
T = Trace of Precipitation, MM = Missing Value Source: NWS Daily Summary

Daily Weather History Graph

Daily Weather History Graph

Search for Another Location

Airport or City:

Trip Planner

Search our weather history database for the weather conditions in past years. The results will help you decide how hot, cold, wet, or windy it might be!

Date:

Astronomy

Nov. 03, 2013 Rise Set
Actual Time 6:12 AM PST 4:55 PM PST
Civil Twilight 5:46 AM PST 5:21 PM PST
Nautical Twilight 5:16 AM PST 5:50 PM PST
Astronomical Twilight 4:47 AM PST 6:20 PM PST
Moon 6:20 AM PST (11/3) 5:15 PM PST (11/3)
Length of Visible Light 11h 35m
Length of Day
10h 43m
New Moon, 0% of the Moon is Illuminated
Nov 3
New Moon
Nov 9
First Quarter
Nov 17
Full
Nov 25
Last Quarter
Dec 2
New

Hourly Weather History & Observations

Time (PST) Temp. Dew Point Humidity Pressure Visibility Wind Dir Wind Speed Gust Speed Precip Events Conditions
12:53 AM 55.9 °F 46.0 °F 69% 29.88 in 10.0 mi Calm Calm - N/A   Clear
1:53 AM 55.0 °F 45.0 °F 69% 29.87 in 10.0 mi Calm Calm - N/A   Clear
1:53 AM 52.0 °F 44.1 °F 74% 29.87 in 10.0 mi Calm Calm - N/A   Clear
2:26 AM 53.6 °F 46.4 °F 77% 29.90 in 5.0 mi WNW 8.1 mph - N/A   Haze
2:43 AM 53.6 °F 51.8 °F 94% 29.90 in 3.0 mi NW 5.8 mph - N/A   Mostly Cloudy
2:53 AM 54.0 °F 52.0 °F 93% 29.88 in 2.5 mi WNW 5.8 mph - N/A   Mostly Cloudy
3:07 AM 53.6 °F 51.8 °F 94% 29.90 in 1.2 mi West 5.8 mph - N/A   Overcast
3:21 AM 55.4 °F 53.6 °F 94% 29.89 in 2.0 mi WNW 5.8 mph - N/A   Overcast
3:48 AM 53.6 °F 51.8 °F 94% 29.89 in 3.0 mi Calm Calm - N/A   Overcast
3:53 AM 54.0 °F 51.1 °F 90% 29.86 in 4.0 mi Calm Calm - N/A   Overcast
4:08 AM 53.6 °F 50.0 °F 88% 29.89 in 5.0 mi Calm Calm - N/A   Overcast
4:53 AM 55.0 °F 50.0 °F 83% 29.88 in 6.0 mi Calm Calm - N/A   Haze
5:53 AM 52.0 °F 46.0 °F 80% 29.89 in 8.0 mi Calm Calm - N/A   Overcast
6:33 AM 53.6 °F 46.4 °F 77% 29.92 in 8.0 mi Calm Calm - N/A   Overcast
6:53 AM 54.0 °F 46.9 °F 77% 29.91 in 7.0 mi Calm Calm - N/A   Overcast
7:53 AM 55.9 °F 48.0 °F 75% 29.92 in 4.0 mi Calm Calm - N/A   Haze
8:33 AM 57.2 °F 50.0 °F 77% 29.94 in 4.0 mi Calm Calm - N/A   Haze
8:53 AM 57.0 °F 50.0 °F 77% 29.93 in 3.0 mi Calm Calm - N/A   Haze
9:53 AM 59.0 °F 48.9 °F 69% 29.92 in 6.0 mi Variable 3.5 mph - N/A   Haze
10:53 AM 62.1 °F 48.0 °F 60% 29.91 in 6.0 mi Calm Calm - N/A   Haze
11:53 AM 64.9 °F 46.9 °F 52% 29.88 in 7.0 mi Calm Calm - N/A   Partly Cloudy
12:53 PM 66.9 °F 46.9 °F 49% 29.84 in 8.0 mi Calm Calm - N/A   Partly Cloudy
1:53 PM 69.1 °F 44.1 °F 40% 29.83 in 10.0 mi West 4.6 mph - N/A   Partly Cloudy
2:53 PM 70.0 °F 44.1 °F 39% 29.81 in 10.0 mi Calm Calm - N/A   Partly Cloudy
3:53 PM 68.0 °F 48.9 °F 50% 29.80 in 10.0 mi SW 9.2 mph - N/A   Partly Cloudy
4:53 PM 64.0 °F 51.1 °F 63% 29.80 in 10.0 mi West 9.2 mph - N/A   Partly Cloudy
5:53 PM 62.1 °F 51.1 °F 67% 29.82 in 10.0 mi West 9.2 mph - N/A   Partly Cloudy
6:53 PM 59.0 °F 51.1 °F 75% 29.84 in 10.0 mi West 9.2 mph - N/A   Clear
7:53 PM 57.0 °F 50.0 °F 77% 29.85 in 10.0 mi West 8.1 mph - N/A   Clear
8:53 PM 55.9 °F 50.0 °F 80% 29.84 in 10.0 mi West 5.8 mph - N/A   Clear
9:25 PM 55.4 °F 51.8 °F 88% 29.86 in 10.0 mi WSW 3.5 mph - N/A   Mostly Cloudy
9:53 PM 57.0 °F 51.1 °F 81% 29.83 in 10.0 mi Calm Calm - N/A   Overcast
10:53 PM 57.0 °F 51.1 °F 81% 29.84 in 10.0 mi West 3.5 mph - N/A   Overcast